Vorticity
nan nan nan nan nan nan nan nan nan nan nan nan nan nan nan nan nan nan nan nan nan nan nan nan nan nan nan nan nan nan nan nan nan nan nan nan nan nan nan nan nan nan nan nan nan nan nan nan nan nan nan nan nan nan nan nan nan nan nan nan nan nan nan nan nan nan nan nan nan nan nan nan nan nan nan nan nan nan nan nan nan nan nan nan nan nan
nan 8 7 8 12 11 8 7 10 9 8 6 7 7 6 7 8 6 3 5 7 9 8 7 6 6 5 2 4 8 9 8 7 7 7 7 7 8 8 8 8 8 8 7 7 7 7 7 8 8 8 8 8 8 7 7 7 7 7 7 7 7 7 7 7 7 7 8 8 8 8 8 8 8 8 8 8 8 8 8 8 8 9 8 8 nan
nan 8 7 7 9 10 8 7 9 9 8 7 7 7 7 8 9 8 6 5 6 8 8 7 6 6 6 3 2 5 8 9 8 7 7 7 7 7 8 8 8 8 8 8 8 7 7 7 8 8 8 8 8 8 7 7 7 7 7 7 7 7 7 7 7 7 7 8 8 8 8 8 8 8 8 8 8 8 8 8 8 8 8 8 8 nan
nan 9 8 7 7 9 9 8 9 9 9 8 8 8 9 8 7 7 7 7 7 8 8 8 7 7 7 3 -0 1 7 9 8 8 7 7 7 7 7 8 8 8 8 8 8 7 7 8 8 8 8 8 8 8 7 7 7 7 7 7 7 7 7 7 7 7 8 8 8 8 8 8 8 8 8 8 8 8 8 8 8 8 8 8 8 nan
nan 9 8 7 7 7 9 10 10 10 9 9 9 9 10 8 7 6 7 8 9 9 9 8 8 8 8 4 -1 -0 4 8 8 8 8 7 7 7 7 7 8 8 8 8 8 8 7 8 8 8 9 8 8 7 7 7 7 7 7 7 7 7 7 7 7 7 8 8 8 8 8 8 8 8 8 8 8 8 8 8 8 8 8 8 8 nan
nan 8 9 8 8 7 8 10 10 10 10 10 10 10 10 9 8 7 7 8 8 9 9 9 8 8 7 3 -2 -2 2 5 6 7 7 7 7 7 7 7 7 8 8 8 8 8 8 8 8 9 9 9 8 7 7 7 7 7 7 7 8 7 7 7 7 7 8 8 8 8 8 8 8 8 8 8 8 8 8 8 8 8 8 8 8 nan
nan 8 10 10 9 8 9 9 9 10 10 10 10 10 11 10 9 8 8 7 7 8 9 10 9 9 5 1 -2 -1 1 2 3 4 5 6 7 7 7 6 7 7 8 8 8 8 8 8 8 9 9 9 8 7 7 7 7 7 7 8 8 8 7 7 7 7 8 8 8 8 8 8 8 8 8 8 8 8 8 8 8 8 8 8 8 nan
nan 9 9 10 9 9 9 9 8 9 10 10 9 9 11 11 10 9 9 8 8 8 9 9 10 9 7 4 2 3 4 4 4 2 2 3 4 5 5 5 6 7 8 8 8 8 8 8 8 9 9 9 8 7 6 7 7 7 8 8 8 8 7 7 7 7 8 8 8 8 8 8 8 8 8 8 8 8 8 8 8 8 8 8 8 nan
nan 9 9 10 9 9 8 7 7 8 10 10 9 9 9 11 11 11 11 10 9 10 9 9 9 10 9 8 6 5 6 8 9 7 6 5 4 3 3 4 4 5 6 8 8 8 7 7 8 9 9 9 8 7 6 6 7 7 8 8 8 8 7 7 7 7 8 8 8 8 8 8 8 8 8 8 8 8 8 8 8 8 8 8 8 nan
nan 10 10 9 10 9 8 6 6 7 9 10 10 9 8 9 11 11 11 11 10 11 10 8 9 9 9 8 7 6 5 4 5 6 8 8 7 7 6 6 4 1 3 6 7 7 7 7 7 8 9 9 8 7 6 6 7 8 8 8 8 8 8 7 7 7 8 8 8 8 8 8 8 8 8 8 8 8 8 8 8 8 8 8 8 nan
nan 9 9 9 9 10 9 7 7 8 9 10 9 8 7 8 10 10 10 10 10 10 10 10 10 9 8 8 8 8 8 5 3 2 3 5 6 8 9 8 6 3 3 5 6 6 6 6 6 7 8 8 7 6 6 7 7 8 8 8 8 8 7 7 7 7 8 8 8 8 8 8 8 8 8 8 8 8 8 8 8 8 8 8 8 nan
nan 7 8 8 9 9 8 9 9 10 10 10 9 8 7 8 10 9 8 8 8 8 10 11 11 11 9 8 8 8 8 8 7 7 6 6 7 8 9 8 7 6 6 6 5 4 3 4 5 7 7 6 6 6 6 7 7 8 8 8 8 8 8 8 8 8 8 8 9 9 9 9 9 8 8 9 9 9 9 9 8 8 8 8 8 nan
nan 9 9 9 9 9 9 10 10 10 10 11 10 9 7 8 9 9 8 7 7 8 9 10 10 10 10 9 8 7 7 8 9 9 10 9 10 10 10 9 9 9 8 8 7 2 -1 2 5 6 6 6 5 6 6 7 7 8 9 9 8 8 8 8 8 8 8 9 9 9 9 9 9 9 9 9 9 9 9 9 9 9 8 8 8 nan
nan 11 11 10 10 9 9 10 11 9 9 9 9 8 8 8 9 9 8 8 9 10 11 10 10 9 10 10 9 8 6 6 9 10 11 12 12 12 11 10 10 10 9 9 8 3 2 6 8 3 3 6 6 7 7 7 7 8 9 9 8 8 8 8 8 8 9 9 9 9 9 9 9 9 9 9 9 9 9 9 9 9 9 8 8 nan
nan 10 11 10 9 9 9 9 10 9 9 8 8 8 9 9 9 9 8 8 10 11 12 11 12 11 12 12 11 9 5 5 8 9 11 13 14 13 11 10 10 10 8 8 8 6 8 12 11 7 4 4 6 6 7 6 5 7 8 8 8 8 8 8 8 9 9 9 9 9 9 9 9 9 9 9 9 9 9 9 9 9 9 8 8 nan
nan 10 10 9 9 9 9 9 9 9 9 9 9 9 9 9 10 10 8 8 10 11 11 11 12 13 13 14 12 10 6 5 8 8 10 13 14 13 10 8 9 9 8 8 9 9 11 11 10 8 4 -0 2 5 8 7 6 7 8 8 8 8 8 8 9 9 9 9 9 9 9 9 9 9 9 9 9 9 9 9 9 9 9 8 8 nan
nan 10 10 10 9 9 9 10 10 10 10 10 10 10 9 9 9 9 8 9 10 11 11 10 10 10 12 12 12 10 8 6 8 9 10 12 12 12 9 8 7 8 8 8 10 10 10 10 10 9 2 -2 0 5 8 7 7 7 8 8 8 8 8 9 9 9 9 9 9 9 9 9 9 10 9 9 9 9 9 9 9 9 9 8 8 nan
nan 10 10 9 10 9 9 8 9 10 11 10 10 10 10 10 10 10 9 8 9 9 10 10 9 8 9 9 10 10 9 7 9 10 11 12 11 11 9 9 8 7 7 8 10 10 10 9 7 2 -5 -4 2 6 7 7 7 7 7 8 8 8 9 9 9 9 9 9 9 9 9 9 10 10 10 10 9 9 9 9 9 8 8 8 8 nan
nan 10 9 9 10 10 9 9 9 10 10 10 10 10 10 10 10 10 8 8 8 9 9 9 9 9 8 7 7 10 9 8 10 11 11 12 11 9 8 10 9 8 8 9 10 11 10 8 2 -3 -3 2 6 7 7 7 6 7 7 8 8 8 9 9 9 9 9 9 9 9 9 9 10 10 10 10 9 9 9 9 9 8 8 8 8 nan
nan 9 8 9 10 10 9 10 10 9 9 10 10 10 9 10 10 9 9 9 9 10 10 9 8 8 8 7 7 8 8 9 11 12 12 12 10 7 8 9 9 8 9 10 11 10 10 8 6 3 4 6 6 7 7 6 6 6 7 8 8 8 9 9 9 9 9 9 9 9 9 9 10 10 10 10 9 9 9 9 8 8 8 8 8 nan
nan 10 8 9 9 9 10 12 11 10 10 10 9 8 8 10 10 9 9 9 9 9 8 8 9 9 8 7 7 8 9 9 10 12 13 12 10 9 9 8 8 8 9 11 11 9 9 9 9 6 3 2 5 6 6 5 5 6 7 7 8 9 9 9 9 8 8 9 9 9 9 9 9 9 9 9 9 9 9 9 9 8 8 8 8 nan
nan 12 12 9 7 7 10 13 13 12 10 6 4 5 8 10 10 10 10 10 9 8 8 9 10 10 8 7 7 9 11 11 11 11 12 11 10 11 10 9 7 7 10 12 11 9 9 9 7 4 2 2 5 6 6 5 5 5 6 8 8 9 9 8 8 8 8 8 9 9 9 10 9 9 9 9 9 9 9 9 9 8 8 8 9 nan
nan 13 14 9 6 6 9 11 13 13 10 5 4 5 9 11 11 11 12 11 10 10 11 11 11 10 9 9 8 9 10 12 12 11 10 9 9 10 10 8 7 8 10 11 10 9 8 9 8 7 6 5 7 7 5 4 4 4 6 8 8 9 8 8 8 8 8 8 9 9 9 10 9 9 9 9 9 9 9 9 9 8 8 9 10 nan
nan 12 12 9 7 5 7 9 10 11 10 8 6 7 10 11 12 13 13 12 11 11 12 11 10 11 11 11 10 9 9 11 12 11 10 9 9 9 8 7 7 9 11 11 10 9 9 10 11 11 11 10 9 6 4 3 3 4 6 8 8 8 8 8 8 8 8 8 9 9 9 9 9 9 9 8 8 8 9 9 8 8 9 10 11 nan
nan 10 10 10 9 5 4 5 7 8 9 8 8 8 10 11 11 10 9 10 10 10 10 9 9 11 10 10 11 11 10 11 11 10 9 10 9 9 8 8 7 8 10 12 11 10 10 10 12 13 13 13 10 6 3 2 2 4 6 8 8 8 8 8 8 8 8 8 9 9 9 9 9 9 8 8 8 8 8 8 8 9 10 12 13 nan
nan 13 14 14 14 12 8 7 9 11 9 7 9 10 10 10 9 7 6 7 9 10 10 9 10 10 9 9 10 11 10 10 11 11 9 9 9 10 10 9 7 6 9 12 12 11 9 10 12 13 13 13 10 6 1 0 2 4 7 8 8 8 8 7 8 8 8 8 9 9 9 9 9 8 8 8 8 8 8 8 9 10 13 16 17 nan
nan 20 19 17 17 17 16 15 15 16 15 15 15 14 10 9 8 7 5 8 10 11 10 9 9 10 10 10 11 11 10 10 10 10 10 9 9 10 10 8 7 7 10 13 12 11 10 12 13 12 11 11 9 4 -1 0 2 4 7 8 7 7 7 7 7 8 8 9 9 9 9 9 8 8 8 8 8 8 8 8 10 13 17 21 22 nan
nan 16 16 16 17 17 16 15 14 13 14 19 21 17 9 7 8 8 8 9 9 10 9 9 9 10 10 10 10 10 10 10 10 10 9 8 9 9 9 8 7 8 11 13 14 14 16 15 13 11 9 9 9 6 2 1 4 7 8 7 7 7 7 7 7 7 8 9 9 9 9 8 8 8 8 8 8 8 8 9 12 18 24 26 24 nan
nan 8 7 8 9 10 11 11 12 13 13 15 16 15 11 9 11 11 12 10 9 9 9 10 9 9 9 9 10 10 10 12 13 12 9 7 8 9 9 8 8 9 12 14 15 16 17 15 13 11 10 10 10 9 6 6 10 12 10 7 7 7 6 6 7 8 8 9 9 9 8 8 8 8 8 8 8 8 8 11 18 25 26 21 17 nan
nan 3 1 0 2 5 8 9 10 14 16 15 13 12 12 13 14 13 13 10 9 9 9 10 10 9 9 9 11 11 12 14 14 12 7 5 8 10 10 8 9 9 12 14 15 14 13 12 12 11 11 10 9 9 9 11 14 15 12 10 9 6 3 5 7 8 9 9 9 8 8 8 8 8 8 8 8 8 8 13 22 28 23 15 12 nan
nan 5 4 3 4 6 9 9 9 11 13 12 10 9 11 13 14 13 12 10 9 9 10 10 10 9 8 8 9 10 12 14 13 10 4 3 8 9 10 9 9 9 10 12 13 11 11 12 12 11 10 8 8 9 10 11 13 14 13 12 9 3 1 5 9 10 10 9 8 8 8 8 8 8 8 8 8 8 8 12 21 26 21 13 11 nan
nan 9 8 7 8 9 10 10 10 10 10 8 7 7 10 12 12 12 11 9 9 10 11 11 10 10 8 8 8 7 8 11 10 6 3 5 9 10 9 9 9 9 9 10 11 10 10 9 9 9 8 8 10 11 12 12 12 11 10 10 8 2 2 9 11 13 11 8 9 9 8 8 8 8 8 8 8 8 7 11 18 23 20 13 11 nan
nan 9 8 9 10 10 10 10 10 11 9 8 7 7 9 10 12 11 10 9 9 10 11 11 10 9 9 9 7 6 7 8 6 4 7 11 11 10 8 8 9 9 10 11 11 10 8 6 6 7 8 10 12 12 13 13 12 10 9 8 7 4 7 12 13 13 11 10 11 10 9 10 10 9 9 9 9 8 6 8 13 17 19 16 11 nan
nan 9 9 10 10 10 10 10 11 11 10 9 9 9 9 10 11 10 10 10 9 9 9 9 9 9 8 8 8 8 9 9 6 4 8 12 11 9 8 9 9 10 10 11 11 11 9 6 5 5 8 11 13 13 13 13 12 11 9 7 6 6 9 11 12 11 11 13 13 11 11 11 10 9 9 8 7 6 5 6 9 12 16 17 12 nan
nan 8 8 10 10 10 9 9 10 10 10 9 9 10 10 10 10 10 11 10 10 8 8 8 9 8 7 6 7 8 9 10 8 6 6 10 10 9 9 10 9 9 9 9 10 10 10 7 5 6 8 10 13 15 14 12 10 9 7 7 7 8 9 9 10 10 11 12 12 11 12 11 10 8 5 2 2 2 4 7 9 10 13 14 14 nan
nan 7 8 9 10 10 9 9 9 10 10 10 10 10 10 10 10 10 10 11 10 9 8 7 7 7 6 6 6 6 8 9 8 6 7 10 10 10 10 9 8 7 8 9 9 8 8 7 7 8 10 12 12 13 12 10 8 7 7 9 9 9 10 10 10 10 10 8 9 10 10 9 9 7 0 -4 1 5 9 10 11 11 11 12 13 nan
nan 8 8 10 10 10 10 10 10 10 10 10 10 11 10 10 10 10 10 11 11 11 11 9 9 8 5 4 5 5 6 7 8 8 11 13 12 10 9 8 8 8 9 8 8 8 7 8 9 11 14 12 9 6 5 6 7 8 9 9 10 11 12 12 11 10 8 6 7 8 8 8 8 7 1 2 10 14 14 15 16 13 12 14 13 nan
nan 8 9 10 11 10 10 10 11 12 11 11 11 11 10 10 9 10 10 11 11 10 11 11 11 11 9 6 6 6 7 7 9 11 13 13 12 11 8 8 10 11 12 10 9 8 8 9 9 11 13 10 7 4 5 7 8 9 9 10 11 13 13 12 10 9 7 7 7 7 9 10 10 10 8 12 16 16 16 15 12 11 14 18 16 nan
nan 8 9 11 11 11 10 10 11 12 12 11 11 11 11 11 11 11 11 11 11 11 11 10 10 11 12 12 11 10 11 12 12 12 13 12 12 11 9 8 10 12 12 12 11 10 10 9 8 7 6 7 8 9 11 10 8 6 7 12 14 14 11 8 7 8 9 9 9 10 12 12 11 11 10 11 11 11 11 11 10 11 16 19 17 nan
nan 9 9 11 11 11 10 10 10 11 11 11 11 11 11 11 12 12 12 12 12 13 12 12 11 12 13 13 14 15 15 14 13 13 13 12 11 11 10 8 8 10 11 11 12 11 11 9 7 6 6 6 6 6 7 7 4 1 6 13 12 8 5 6 9 12 12 11 10 10 9 9 8 8 8 8 9 9 10 10 9 9 13 17 17 nan
nan 9 10 10 11 11 10 10 11 12 11 10 11 11 11 11 11 11 11 12 12 12 12 12 12 12 13 14 15 15 14 13 13 12 12 11 10 9 9 9 9 10 11 11 11 11 10 9 8 8 8 7 7 7 8 5 3 4 12 14 8 2 3 9 13 14 12 10 8 6 5 7 9 10 9 9 11 11 9 8 7 7 12 15 12 nan
nan 8 10 11 11 10 10 11 12 11 10 10 10 11 10 10 10 10 10 10 10 10 10 10 10 10 10 11 12 13 14 14 14 13 12 11 10 9 8 8 9 10 10 11 11 12 11 9 8 8 8 9 10 10 9 7 8 11 14 10 6 8 14 18 17 12 8 6 7 6 9 12 12 10 9 11 12 11 10 8 5 5 11 12 10 nan
nan 11 12 11 11 11 11 10 10 10 10 10 10 10 10 11 11 10 10 9 9 9 10 11 11 11 9 9 9 11 13 14 14 14 14 13 11 10 9 9 9 9 10 10 11 12 13 11 9 9 10 10 9 7 6 8 10 13 12 8 8 13 16 14 10 6 5 6 9 10 12 11 10 9 10 12 13 12 12 10 11 13 13 12 10 nan
nan 11 11 11 10 10 10 10 11 11 11 10 10 9 10 11 11 10 9 9 9 9 10 11 11 11 11 10 10 10 11 11 11 14 16 14 11 8 10 12 11 11 8 6 7 8 10 11 11 12 12 10 9 8 9 8 9 10 9 9 10 11 7 3 3 5 7 9 10 10 10 10 10 10 11 12 12 13 13 14 15 15 14 13 11 nan
nan 11 10 11 10 10 10 10 10 11 11 11 10 9 10 11 11 11 9 9 10 10 10 9 8 9 10 11 10 10 9 9 10 12 13 13 14 16 17 14 12 11 8 6 5 5 6 8 10 11 11 10 9 9 9 9 9 9 8 9 11 12 8 5 6 7 8 9 10 10 9 10 10 10 10 11 11 11 11 11 11 11 12 12 11 nan
nan 10 9 10 10 11 10 10 10 10 10 10 10 10 11 11 11 11 10 9 9 10 11 10 7 7 7 8 9 9 9 9 9 10 11 12 15 18 18 17 12 9 8 8 7 7 6 6 7 7 8 9 11 11 11 10 11 11 11 11 12 12 12 11 11 10 9 10 10 10 11 11 10 9 7 9 10 12 12 11 11 11 11 11 10 nan
nan 10 9 9 10 11 11 11 11 10 9 10 10 11 11 10 9 8 9 10 9 9 9 9 8 7 7 8 9 8 8 9 10 11 11 11 11 12 13 15 14 12 9 8 8 8 7 6 6 5 5 8 11 13 14 13 12 11 11 12 12 11 11 11 11 11 12 11 10 10 11 10 9 7 8 10 11 12 12 12 11 12 12 11 11 nan
nan 9 8 8 9 9 11 11 10 9 8 8 9 11 12 8 4 4 9 10 8 7 9 10 9 8 9 10 9 7 7 9 11 12 12 11 11 11 11 12 12 12 11 10 11 11 11 10 8 6 6 7 9 10 11 11 11 11 11 11 10 10 10 10 10 12 13 11 10 10 9 7 6 7 10 12 12 11 10 10 11 13 13 12 11 nan
nan 9 9 8 8 9 10 10 9 9 8 7 8 10 12 9 6 7 11 11 9 9 9 9 9 9 10 9 8 8 9 11 11 12 12 12 11 11 11 10 10 10 11 13 14 15 16 17 16 13 8 5 4 5 7 9 10 11 11 11 11 11 11 11 12 12 11 10 10 10 8 7 7 8 11 10 10 9 9 10 12 13 13 12 11 nan
nan 10 10 8 8 8 10 10 9 9 9 8 8 9 10 10 11 12 11 10 9 9 9 9 9 9 9 9 9 10 11 11 11 11 11 11 11 11 10 9 9 10 11 14 14 14 14 18 21 23 19 9 4 2 7 11 11 12 11 12 13 13 13 12 12 11 9 9 9 9 8 8 9 11 11 10 9 9 10 11 11 12 12 11 9 nan
nan nan nan nan nan nan nan nan nan nan nan nan nan nan nan nan nan nan nan nan nan nan nan nan nan nan nan nan nan nan nan nan nan nan nan nan nan nan nan nan nan nan nan nan nan nan nan nan nan nan nan nan nan nan nan nan nan nan nan nan nan nan nan nan nan nan nan nan nan nan nan nan nan nan nan nan nan nan nan nan nan nan nan nan nan nan
CAPE
nan nan nan nan nan nan nan nan nan nan nan nan nan nan nan nan nan nan nan nan nan nan nan nan nan nan nan nan nan nan 0 1 1 1 2 2 1 1 1 1 1 2 1 1 1 2 2 3 3 3 3 4 5 5 7 9 9 13 16 18 18 21 23 25 25 26 27 29 30 30 28 26 25 25 27 30 33 33 35 37 37 39 37 37 37 46
nan nan nan nan nan nan nan nan nan nan nan nan nan nan nan nan nan nan nan nan nan nan nan nan nan nan nan nan nan nan nan 0 0 0 0 0 1 1 0 1 1 1 1 1 1 1 2 2 2 2 2 3 4 4 6 8 8 11 15 17 17 19 22 24 24 27 28 29 28 28 26 24 25 25 27 31 35 35 37 38 38 41 41 44 44 51
nan nan nan nan nan nan nan nan nan nan nan nan nan nan nan nan nan nan nan nan nan nan nan nan nan nan nan nan nan nan nan nan nan nan 0 0 0 0 0 0 0 0 0 1 1 1 2 2 2 2 2 3 4 4 5 7 7 9 11 14 14 15 17 20 20 24 26 27 25 25 24 22 26 26 28 33 36 36 38 40 40 42 45 49 49 54
nan nan nan nan nan nan nan nan nan nan nan nan nan nan nan nan nan nan nan nan nan nan nan nan nan nan nan nan nan nan nan nan nan nan nan nan nan nan nan nan nan 0 0 0 0 0 1 2 2 2 2 2 3 3 4 5 5 7 9 10 10 12 14 16 16 21 22 22 21 21 22 24 27 27 31 33 35 35 38 41 41 46 49 52 52 56
nan nan nan nan nan nan nan nan nan nan nan nan nan nan nan nan nan nan nan nan nan nan nan nan nan nan nan nan nan nan nan nan nan nan nan nan nan nan nan nan nan nan nan nan nan 0 1 1 1 1 1 2 3 3 4 5 5 7 8 9 9 10 12 15 15 18 19 20 18 18 22 24 28 28 30 32 36 36 39 41 41 45 48 58 58 59
nan nan nan nan nan nan nan nan nan nan nan nan nan nan nan nan nan nan nan nan nan nan nan nan nan nan nan nan nan nan nan nan nan nan nan nan nan nan nan nan nan nan nan nan nan nan 0 1 1 1 1 1 3 3 4 5 5 6 8 9 9 10 11 15 15 17 18 20 21 21 22 24 26 26 29 32 35 35 40 41 41 46 49 60 60 62
nan nan nan nan nan nan nan nan nan nan nan nan nan nan nan nan nan nan nan nan nan nan nan nan nan nan nan nan nan nan nan nan nan nan nan nan nan nan nan nan nan nan nan nan nan nan 0 0 0 0 0 1 2 2 4 5 5 6 8 8 8 9 12 15 15 16 18 20 20 20 21 23 25 25 26 29 33 33 40 43 43 45 46 56 56 61
nan nan nan nan nan nan nan nan nan nan nan nan nan nan nan nan nan nan nan nan nan nan nan nan nan nan nan nan nan nan nan nan nan nan nan nan nan nan nan nan nan nan nan nan nan nan nan 0 0 0 0 0 1 1 2 5 5 6 7 8 8 9 13 14 14 16 17 18 18 18 19 21 21 21 23 25 29 29 35 41 41 45 48 48 48 56
nan nan nan nan nan nan nan nan nan nan nan nan nan nan nan nan nan nan nan nan nan nan nan nan nan nan nan nan nan nan nan nan nan nan nan nan nan nan nan nan nan nan nan nan nan nan nan 0 0 0 0 0 1 1 2 4 4 6 7 8 8 9 13 13 13 15 17 18 19 19 19 20 21 21 22 25 26 26 29 36 36 40 43 48 48 56
nan nan nan nan nan nan nan nan nan nan nan nan nan nan nan nan nan nan nan nan nan nan nan nan nan nan nan nan nan nan nan nan nan nan nan nan nan nan nan nan nan nan nan nan nan nan nan nan nan nan nan nan 0 0 2 3 3 6 7 8 8 10 12 13 13 14 17 18 18 18 19 20 21 21 22 24 27 27 27 30 30 33 41 45 45 54
nan nan nan nan nan nan nan nan nan nan nan nan nan nan nan nan nan nan nan nan nan nan nan nan nan nan nan nan nan nan nan nan nan nan nan nan nan nan nan nan nan nan nan nan nan nan nan nan nan nan nan nan nan nan 1 4 4 6 7 8 8 9 11 12 12 14 16 17 18 18 20 19 19 19 22 23 25 25 26 27 27 29 35 40 40 48
nan nan nan nan nan nan nan nan nan nan nan nan nan nan nan nan nan nan nan nan nan nan nan nan nan nan nan nan nan nan nan nan nan nan nan nan nan nan nan nan nan nan nan nan nan nan nan nan nan nan nan nan nan nan 1 2 2 6 7 8 8 9 10 12 12 14 16 16 16 16 17 18 20 20 23 22 24 24 24 25 25 26 29 34 34 41
nan nan nan nan nan nan nan nan nan nan nan nan nan nan nan nan nan nan nan nan nan nan nan nan nan nan nan nan nan nan nan nan nan nan nan nan nan nan nan nan nan nan nan nan nan nan nan nan nan nan nan nan nan nan 1 3 3 5 7 8 8 9 11 12 12 14 15 16 16 16 17 18 19 19 19 20 22 22 23 24 24 26 27 31 31 35
nan nan nan nan nan nan nan nan nan nan nan nan nan nan nan nan nan nan nan nan nan nan nan nan nan nan nan nan nan nan nan nan nan nan nan nan nan nan nan nan nan nan nan nan nan nan nan nan nan nan nan nan nan nan 0 4 4 5 7 7 7 9 11 13 13 14 15 14 15 15 16 16 17 17 18 19 20 20 21 22 22 24 25 29 29 31
nan nan nan nan nan nan nan nan nan nan nan nan nan nan nan nan nan nan nan nan nan nan nan nan nan nan nan nan nan nan nan nan nan nan nan nan nan nan nan nan nan nan nan nan nan nan nan nan nan nan nan nan nan nan nan 2 2 5 6 7 7 9 11 13 13 14 14 14 15 15 15 16 17 17 18 18 17 17 19 20 20 22 25 27 27 28
nan nan nan nan nan nan nan nan nan nan nan nan nan nan nan nan nan nan nan nan nan nan nan nan nan nan nan nan nan nan nan nan nan nan nan nan nan nan nan nan nan nan nan nan nan nan nan nan nan nan nan nan nan nan nan 2 2 4 5 6 6 8 9 12 12 14 14 13 14 14 15 15 15 15 15 17 17 17 17 19 19 20 24 24 24 25
nan nan nan nan nan nan nan nan nan nan nan nan nan nan nan nan nan nan nan nan nan nan nan nan nan nan nan nan nan nan nan nan nan nan nan nan nan nan nan nan nan nan nan nan nan nan nan nan nan nan nan nan nan nan nan 1 1 3 4 5 5 7 8 9 9 13 14 15 15 15 15 14 15 15 15 14 15 15 16 17 17 20 22 22 22 23
nan nan nan nan nan nan nan nan nan nan nan nan nan nan nan nan nan nan nan nan nan nan nan nan nan nan nan nan nan nan nan nan nan nan nan nan nan nan nan nan nan nan nan nan nan nan nan nan nan nan nan nan nan nan nan 1 1 2 3 5 5 7 8 8 8 10 11 13 14 14 15 16 15 15 15 14 15 15 15 16 16 19 20 22 22 22
nan nan nan nan nan nan nan nan nan nan nan nan nan nan nan nan nan nan nan nan nan nan nan nan nan nan nan nan nan nan nan nan nan nan nan nan nan nan nan nan nan nan nan nan nan nan nan nan nan nan nan nan nan nan nan 0 0 1 3 4 4 5 7 8 8 9 10 11 12 12 12 14 16 16 16 15 15 15 15 16 16 17 19 19 19 20
nan nan nan nan nan nan nan nan nan nan nan nan nan nan nan nan nan nan nan nan nan nan nan nan nan nan nan nan nan nan nan nan nan nan nan nan nan nan nan nan nan nan nan nan nan nan nan nan nan nan nan nan nan nan nan nan nan 1 2 3 3 4 6 6 6 7 8 8 9 9 11 12 13 13 15 16 15 15 15 15 15 17 17 18 18 20
nan nan nan nan nan nan nan nan nan nan nan nan nan nan nan nan nan nan nan nan nan nan nan nan nan nan nan nan nan nan nan nan nan nan nan nan nan nan nan nan nan nan nan nan nan nan nan nan nan nan nan nan nan nan nan nan nan 0 1 2 2 4 4 6 6 6 6 7 8 8 9 10 12 12 12 15 16 16 17 15 15 16 16 18 18 19
nan nan nan nan nan nan nan nan nan nan nan nan nan nan nan nan nan nan nan nan nan nan nan nan nan nan nan nan nan nan nan nan nan nan nan nan nan nan nan nan nan nan nan nan nan nan nan nan nan nan nan nan nan nan nan nan nan nan 0 1 1 2 4 4 4 5 6 7 8 8 8 10 11 11 12 14 15 15 16 16 16 16 16 17 17 18
nan nan nan nan nan nan nan nan nan nan nan nan nan nan nan nan nan nan nan nan nan nan nan nan nan nan nan nan nan nan nan nan nan nan nan nan nan nan nan nan nan nan nan nan nan nan nan nan nan nan nan nan nan nan nan nan nan nan nan 0 0 1 2 3 3 4 5 7 8 8 9 10 10 10 11 12 13 13 14 14 14 15 16 17 17 18
nan nan nan nan nan nan nan nan nan nan nan nan nan nan nan nan nan nan nan nan nan nan nan nan nan nan nan nan nan nan nan nan nan nan nan nan nan nan nan nan nan nan nan nan nan nan nan nan nan nan nan nan nan nan nan nan nan nan nan nan nan 0 1 2 2 3 4 5 7 7 8 9 10 10 11 11 12 12 14 14 14 14 16 16 16 14
nan nan nan nan nan nan nan nan nan nan nan nan nan nan nan nan nan nan nan nan nan nan nan nan nan nan nan nan nan nan nan nan nan nan nan nan nan nan nan nan nan nan nan nan nan nan nan nan nan nan nan nan nan nan nan nan nan nan nan nan nan nan 0 1 1 2 3 5 6 6 8 8 10 10 10 11 12 12 12 13 13 14 15 14 14 12
nan nan nan nan nan nan nan nan nan nan nan nan nan nan nan nan nan nan nan nan nan nan nan nan nan nan nan nan nan nan nan nan nan nan nan nan nan nan nan nan nan nan nan nan nan nan nan nan nan nan nan nan nan nan nan nan nan nan nan nan nan nan nan 0 0 1 2 4 5 5 7 8 8 8 10 10 11 11 12 13 13 14 14 12 12 9
nan nan nan nan nan nan 2 4 5 5 5 nan nan nan nan nan nan nan nan nan nan nan nan nan nan nan nan nan nan nan nan nan nan nan nan nan nan nan nan nan nan nan nan nan nan nan nan nan nan nan nan nan nan nan nan nan nan nan nan nan nan nan nan nan nan 0 1 3 4 4 5 7 8 8 9 9 10 10 11 13 13 14 14 11 11 8
4 2 2 4 4 4 2 0 nan nan 0 4 4 4 nan nan nan nan nan nan nan nan nan nan nan nan nan nan nan nan nan nan nan nan nan nan nan nan nan nan nan nan nan nan nan nan nan nan nan nan nan nan nan nan nan nan nan nan nan nan nan nan nan nan nan 0 0 1 2 2 4 5 6 6 8 8 9 9 10 11 11 13 12 6 6 1
1 1 2 nan nan nan nan nan nan nan nan 1 5 5 nan nan nan nan nan nan nan nan nan nan nan nan nan nan nan nan nan nan nan nan nan nan nan nan nan nan nan nan nan nan nan nan nan nan nan nan nan nan nan nan nan nan nan nan nan nan nan nan nan nan nan nan 0 0 1 1 2 4 4 4 5 7 8 8 9 11 11 12 9 4 4 0
nan nan nan nan nan nan nan nan nan nan nan 0 nan nan nan nan nan nan nan nan nan nan nan nan nan nan nan nan nan nan nan nan nan nan nan nan nan nan nan nan nan nan nan nan nan nan nan nan nan nan nan nan nan nan nan nan nan nan nan nan nan nan nan nan nan nan nan 0 1 1 1 2 3 3 4 5 7 7 8 10 10 9 3 1 1 0
nan nan nan nan nan nan nan nan nan nan nan 0 nan nan nan nan nan nan nan nan nan nan nan nan nan nan nan nan nan nan nan nan nan nan nan nan nan nan nan nan nan nan nan nan nan nan nan nan nan nan nan nan nan nan nan nan nan nan nan nan nan nan nan nan nan nan nan 0 0 0 1 1 2 2 2 4 6 6 7 9 9 8 1 nan nan nan
nan nan nan nan nan nan nan nan nan nan nan nan nan nan nan nan nan nan nan nan nan nan nan nan nan nan nan nan nan nan nan nan nan nan nan nan nan nan nan nan nan nan nan nan nan nan nan nan nan nan nan nan nan nan nan nan nan nan nan nan nan nan nan nan nan nan nan 0 0 0 0 0 1 1 1 2 3 3 4 6 6 7 nan nan nan nan
nan nan nan nan nan nan nan nan nan nan nan nan nan nan nan nan nan nan nan nan nan nan nan nan nan nan nan nan nan nan nan nan nan nan nan nan nan nan nan nan nan nan nan nan nan nan nan nan nan nan nan nan nan nan nan nan nan nan nan nan nan nan nan nan nan nan nan nan nan nan nan 0 1 1 1 2 2 2 4 5 5 6 5 nan nan nan
nan nan nan nan nan nan nan nan nan nan nan nan nan nan nan nan nan nan nan nan nan nan nan nan nan nan nan nan nan nan nan nan nan nan nan nan nan nan nan nan nan nan nan nan nan nan nan nan nan nan nan nan nan nan nan nan nan nan nan nan nan nan nan nan nan nan nan nan nan nan nan nan 0 0 1 1 2 2 3 4 4 5 5 1 1 nan
nan nan nan nan nan nan nan nan nan nan nan nan nan nan nan nan nan nan nan nan nan nan nan nan nan nan nan nan nan nan nan nan nan nan nan nan nan nan nan nan nan nan nan nan nan nan nan nan nan nan nan nan nan nan nan nan nan nan nan nan nan nan nan nan nan nan nan nan nan nan nan nan nan nan nan 1 2 2 3 2 2 2 3 6 6 4
nan nan nan nan nan nan nan nan nan nan nan nan nan nan nan nan nan nan nan nan nan nan nan nan nan nan nan nan nan nan nan nan nan nan nan nan nan nan nan nan nan nan nan nan nan nan nan nan nan nan nan nan nan nan nan nan nan nan nan nan nan nan nan nan nan nan nan nan nan nan nan nan nan nan nan 1 3 3 2 1 1 1 2 3 3 4
nan nan nan nan nan nan nan nan nan nan nan nan nan nan nan nan nan nan nan nan nan nan nan nan nan nan nan nan nan nan nan nan nan nan nan nan nan nan nan nan nan nan 0 0 0 nan nan nan nan nan nan nan nan nan nan nan nan nan nan nan nan nan nan nan nan nan nan nan nan nan nan nan nan nan nan 1 0 0 0 1 1 0 1 2 2 2
nan nan nan nan nan nan nan nan nan nan nan nan nan nan nan nan nan nan nan nan nan nan nan nan nan nan nan nan nan nan nan nan nan nan nan nan nan nan nan nan nan nan nan nan nan nan nan nan nan nan nan nan nan nan nan nan nan nan nan nan nan nan nan nan nan nan nan nan nan nan nan nan nan nan nan nan nan nan nan nan nan nan 1 1 1 1
nan nan nan nan nan nan nan nan nan nan nan nan nan nan nan nan nan nan nan nan nan nan nan nan nan nan nan nan nan nan nan nan nan nan nan nan nan nan nan nan nan nan nan nan nan nan nan nan nan nan nan nan nan nan nan nan nan nan nan nan nan nan nan nan nan nan nan nan nan nan nan nan nan nan nan nan nan nan nan nan nan nan nan nan nan nan
nan nan nan nan nan nan nan nan nan nan nan nan nan nan nan nan nan nan nan nan nan nan nan nan nan nan nan nan nan nan nan nan nan nan nan nan nan nan nan nan nan nan nan nan nan nan nan nan nan nan nan nan nan nan nan nan nan nan nan nan nan nan nan nan nan nan nan nan nan nan nan nan nan nan nan nan nan nan nan nan nan nan nan nan nan nan
nan nan nan nan nan nan nan nan nan nan nan nan nan nan nan nan nan nan nan nan nan nan nan nan nan nan nan nan nan nan nan nan nan nan nan nan nan nan nan nan nan nan nan nan nan nan nan nan nan nan nan nan nan nan nan nan nan nan nan nan nan nan nan nan nan nan nan nan nan nan nan nan nan nan nan nan nan nan nan nan nan nan nan nan nan nan
nan nan nan nan nan nan nan nan nan nan nan nan nan nan nan nan nan nan nan nan nan nan nan nan nan nan nan nan nan nan nan nan nan nan nan nan nan nan nan nan nan nan nan nan nan nan nan nan nan nan nan nan nan nan nan nan nan nan nan nan nan nan nan nan nan nan nan nan nan nan nan nan nan nan nan nan nan nan nan nan nan nan nan nan nan nan
nan nan nan nan nan nan nan nan nan nan nan nan nan nan nan nan nan nan nan nan nan nan nan nan nan nan nan nan nan nan nan nan nan nan nan nan nan nan nan nan nan nan nan nan nan nan nan nan nan nan nan nan nan nan nan nan nan nan nan nan nan nan nan nan nan nan nan nan nan nan nan nan nan nan nan nan nan nan nan nan nan 0 nan nan nan nan
nan nan nan nan nan nan nan nan nan nan nan nan nan nan nan nan nan nan nan nan nan nan nan nan nan nan nan nan nan nan nan nan nan nan nan nan nan nan nan nan nan nan nan nan nan nan nan nan nan nan nan nan nan nan nan nan nan nan nan nan nan nan nan nan nan nan nan nan nan nan nan nan nan nan nan nan nan nan nan nan nan nan nan nan nan nan
nan nan nan nan nan nan nan nan nan nan nan nan nan nan nan nan nan nan nan nan nan nan nan nan nan nan nan nan nan nan nan nan nan nan nan nan nan nan nan nan nan nan nan nan nan nan nan nan nan nan nan nan nan nan nan nan nan nan nan nan nan nan nan nan nan nan nan nan nan nan nan nan nan nan nan nan nan nan nan nan nan nan nan nan nan nan
nan nan nan nan nan nan nan nan nan nan nan nan nan nan nan nan nan nan nan nan nan nan nan nan nan nan nan nan nan nan nan nan nan nan nan nan nan nan nan nan nan nan nan nan nan nan nan nan nan nan nan nan nan nan nan nan nan nan nan nan nan nan nan nan nan nan nan nan nan nan nan nan nan nan nan nan nan nan nan nan nan nan nan nan nan nan
nan nan nan nan nan nan nan nan nan nan nan nan nan nan nan nan nan nan nan nan nan nan nan nan nan nan nan nan nan nan nan nan nan nan nan nan nan nan nan nan nan nan nan nan nan nan nan nan nan nan nan nan nan nan nan nan nan nan nan nan nan nan nan nan nan nan nan nan nan nan nan nan nan nan nan nan nan nan nan nan nan nan nan nan nan nan
nan nan nan nan nan nan nan nan nan nan nan nan nan nan nan nan nan nan nan nan nan nan nan nan nan nan nan nan nan nan nan nan nan nan nan nan nan nan nan nan nan nan nan nan nan nan nan nan nan nan nan nan nan nan nan nan nan nan nan nan nan nan nan nan nan nan nan nan nan nan nan nan nan nan nan nan nan nan nan nan nan nan nan nan nan nan
nan nan nan nan nan nan nan nan nan nan nan nan nan nan nan nan 0 0 nan nan nan nan nan nan nan nan nan nan nan nan nan nan nan nan nan nan nan nan nan nan nan nan nan nan nan nan nan nan nan nan nan nan nan nan nan nan nan nan nan nan nan nan nan nan nan nan nan nan nan nan nan nan nan nan nan nan nan nan nan nan nan nan nan nan nan nan
nan nan nan nan nan nan nan nan nan nan nan nan nan nan nan nan nan nan nan nan nan nan nan nan nan nan nan nan nan nan nan nan nan nan nan nan nan nan nan nan nan 0 nan nan nan nan nan nan nan nan nan nan nan nan nan nan nan nan nan nan nan nan nan nan nan nan nan nan nan nan nan nan nan nan 0 0 nan nan 0 nan nan nan nan nan nan nan
nan nan nan nan nan nan nan nan nan nan nan nan nan nan nan nan nan nan nan nan nan nan nan nan nan nan nan nan nan nan nan nan nan nan nan nan nan nan nan nan nan nan nan nan nan nan nan nan nan nan nan 0 nan nan nan nan nan nan nan nan nan nan nan nan nan nan nan nan nan nan nan nan nan nan nan nan 0 0 nan nan nan nan nan nan nan nan